Defiance, OH

6:07 PM EDT on April 23, 2017 (GMT -0400)
Defiance Memorial

Weather History for KDFI - October, 2013

Change the Weather History Date:

Monday, October 21, 2013

  Actual Average Record
Temperature  
Mean Temperature 48 °F -  
Max Temperature 57 °F 58 °F 86 °F (1953)
Min Temperature 39 °F 36 °F 17 °F (1952)
Degree Days  
Heating Degree Days 17    
Moisture  
Dew Point 41 °F    
Average Humidity 70    
Maximum Humidity 89    
Minimum Humidity 57    
Precipitation  
Precipitation 0.01 in - - ()
Sea Level Pressure  
Sea Level Pressure 29.90 in    
Wind  
Wind Speed 10 mph (SW)    
Max Wind Speed 14 mph    
Max Gust Speed 22 mph    
Visibility 10 miles    
Events Rain    
Averages and records for this station are not official NWS values.
T = Trace of Precipitation, MM = Missing Value Source: NWS Daily Summary

Daily Weather History Graph

Daily Weather History Graph

Search for Another Location

Airport or City:

Trip Planner

Search our weather history database for the weather conditions in past years. The results will help you decide how hot, cold, wet, or windy it might be!

Date:

Astronomy

Oct. 21, 2013 Rise Set
Actual Time 7:56 AM EDT 6:47 PM EDT
Civil Twilight 7:28 AM EDT 7:15 PM EDT
Nautical Twilight 6:56 AM EDT 7:47 PM EDT
Astronomical Twilight 6:24 AM EDT 8:19 PM EDT
Moon 8:37 PM EDT (10/21) 10:32 AM EDT (10/21)
Length of Visible Light 11h 47m
Length of Day
10h 50m
Waning Gibbous, 93% of the Moon is Illuminated
Oct 21
Waning Gibbous
Oct 26
Last Quarter
Nov 3
New
Nov 10
First Quarter
Nov 17
Full

Hourly Weather History & Observations

Time (EDT) Temp. Windchill Dew Point Humidity Pressure Visibility Wind Dir Wind Speed Gust Speed Precip Events Conditions
12:53 AM 55.0 °F - 39.9 °F 57% 29.90 in 10.0 mi SSW 13.8 mph 21.9 mph N/A   Mostly Cloudy
1:53 AM 54.0 °F - 41.0 °F 62% 29.89 in 10.0 mi SSW 11.5 mph - N/A   Mostly Cloudy
2:53 AM 54.0 °F - 41.0 °F 62% 29.89 in 10.0 mi SSW 12.7 mph 20.7 mph N/A   Scattered Clouds
3:53 AM 52.0 °F - 39.9 °F 63% 29.89 in 10.0 mi SSW 12.7 mph 19.6 mph N/A   Clear
4:53 AM 50.0 °F - 39.9 °F 68% 29.90 in 10.0 mi SSW 9.2 mph - N/A   Clear
5:53 AM 51.1 °F - 39.9 °F 66% 29.89 in 10.0 mi SSW 11.5 mph - N/A   Clear
6:53 AM 51.1 °F - 39.9 °F 66% 29.89 in 10.0 mi SSW 11.5 mph - N/A   Partly Cloudy
7:53 AM 50.0 °F - 41.0 °F 71% 29.90 in 10.0 mi SSW 10.4 mph - N/A   Clear
8:53 AM 51.1 °F - 41.0 °F 68% 29.91 in 10.0 mi SSW 9.2 mph - N/A   Partly Cloudy
9:53 AM 53.1 °F - 42.1 °F 66% 29.92 in 10.0 mi SSW 11.5 mph - N/A   Clear
10:53 AM 55.0 °F - 42.1 °F 62% 29.91 in 10.0 mi SW 13.8 mph - N/A   Clear
11:53 AM 57.0 °F - 43.0 °F 59% 29.90 in 10.0 mi SW 9.2 mph - N/A   Scattered Clouds
12:53 PM 57.0 °F - 43.0 °F 59% 29.90 in 10.0 mi SW 9.2 mph - N/A   Overcast
1:53 PM 55.9 °F - 44.1 °F 64% 29.88 in 10.0 mi SW 8.1 mph - N/A   Overcast
2:53 PM 54.0 °F - 46.0 °F 75% 29.86 in 10.0 mi WSW 5.8 mph - 0.00 in Rain Light Rain
3:53 PM 53.1 °F - 46.9 °F 80% 29.86 in 10.0 mi Variable 4.6 mph - 0.00 in Rain Light Rain
4:53 PM 52.0 °F - 46.0 °F 80% 29.87 in 6.0 mi WSW 8.1 mph - 0.00 in Rain Light Rain
5:12 PM 51.8 °F - 46.4 °F 82% 29.86 in 5.0 mi WSW 5.8 mph - 0.01 in Rain Light Rain
5:53 PM 50.0 °F - 46.9 °F 89% 29.87 in 8.0 mi WSW 6.9 mph - 0.01 in Rain Light Rain
6:53 PM 50.0 °F - 45.0 °F 83% 29.89 in 10.0 mi West 8.1 mph - 0.00 in   Overcast
7:53 PM 48.9 °F - 42.1 °F 77% 29.90 in 10.0 mi WSW 6.9 mph - N/A   Overcast
8:15 PM 48.2 °F - 42.8 °F 82% 29.90 in 10.0 mi WSW 8.1 mph - N/A   Overcast
8:45 PM 46.4 °F 43.5 °F 35.6 °F 66% 29.91 in 10.0 mi Variable 5.8 mph - N/A   Mostly Cloudy
8:53 PM 46.0 °F 44.8 °F 35.1 °F 66% 29.92 in 10.0 mi Variable 3.5 mph - N/A   Scattered Clouds
9:53 PM 41.0 °F 39.0 °F 34.0 °F 76% 29.92 in 10.0 mi WSW 3.5 mph - N/A   Clear
10:53 PM 39.9 °F 37.8 °F 33.1 °F 77% 29.93 in 10.0 mi Variable 3.5 mph - N/A   Clear
11:53 PM 41.0 °F 37.1 °F 30.9 °F 67% 29.93 in 10.0 mi Variable 5.8 mph - N/A   Clear